<?xml version='1.0' standalone='yes' ?><gpx version='1.1' creator='ALPINTOUREN.AT' xmlns='http://www.topografix.com/GPX/1/1' xmlns:xsi='http://www.w3.org/2001/XMLSchema-instance' xsi:schemaLocation='http://www.topografix.com/GPX/1/1 http://www.topografix.com/GPX/1/1/gpx.xsd'><metadata><name>Tracks</name><time>2007-01-01T01:00:00Z</time></metadata>
<trk><name>LINIE1</name><number>1</number><trkseg>
<trkpt lat='46.85642108' lon='13.74916064'><ele>0</ele><time>2007-01-01T01:00:00Z</time><type>Trackpoint</type></trkpt>
<trkpt lat='46.85669070' lon='13.74922829'><ele>0</ele><time>2007-01-01T01:00:00Z</time><type>Trackpoint</type></trkpt>
<trkpt lat='46.85709405' lon='13.74962480'><ele>0</ele><time>2007-01-01T01:00:00Z</time><type>Trackpoint</type></trkpt>
<trkpt lat='46.85767491' lon='13.75067836'><ele>0</ele><time>2007-01-01T01:00:00Z</time><type>Trackpoint</type></trkpt>
<trkpt lat='46.85816749' lon='13.75127228'><ele>0</ele><time>2007-01-01T01:00:00Z</time><type>Trackpoint</type></trkpt>
<trkpt lat='46.85906340' lon='13.75226276'><ele>0</ele><time>2007-01-01T01:00:00Z</time><type>Trackpoint</type></trkpt>
<trkpt lat='46.85987056' lon='13.75292474'><ele>0</ele><time>2007-01-01T01:00:00Z</time><type>Trackpoint</type></trkpt>
<trkpt lat='46.86076790' lon='13.75352186'><ele>0</ele><time>2007-01-01T01:00:00Z</time><type>Trackpoint</type></trkpt>
<trkpt lat='46.86157554' lon='13.75405274'><ele>0</ele><time>2007-01-01T01:00:00Z</time><type>Trackpoint</type></trkpt>
<trkpt lat='46.86202288' lon='13.75471196'><ele>0</ele><time>2007-01-01T01:00:00Z</time><type>Trackpoint</type></trkpt>
<trkpt lat='46.86238123' lon='13.75510819'><ele>0</ele><time>2007-01-01T01:00:00Z</time><type>Trackpoint</type></trkpt>
<trkpt lat='46.86251519' lon='13.75537154'><ele>0</ele><time>2007-01-01T01:00:00Z</time><type>Trackpoint</type></trkpt>
<trkpt lat='46.86237954' lon='13.75556719'><ele>0</ele><time>2007-01-01T01:00:00Z</time><type>Trackpoint</type></trkpt>
<trkpt lat='46.86210848' lon='13.75589293'><ele>0</ele><time>2007-01-01T01:00:00Z</time><type>Trackpoint</type></trkpt>
<trkpt lat='46.86174771' lon='13.75615238'><ele>0</ele><time>2007-01-01T01:00:00Z</time><type>Trackpoint</type></trkpt>
<trkpt lat='46.86107283' lon='13.75621266'><ele>0</ele><time>2007-01-01T01:00:00Z</time><type>Trackpoint</type></trkpt>
<trkpt lat='46.86017332' lon='13.75620559'><ele>0</ele><time>2007-01-01T01:00:00Z</time><type>Trackpoint</type></trkpt>
<trkpt lat='46.86008337' lon='13.75620489'><ele>0</ele><time>2007-01-01T01:00:00Z</time><type>Trackpoint</type></trkpt>
<trkpt lat='46.86003719' lon='13.75653237'><ele>0</ele><time>2007-01-01T01:00:00Z</time><type>Trackpoint</type></trkpt>
<trkpt lat='46.85994554' lon='13.75699064'><ele>0</ele><time>2007-01-01T01:00:00Z</time><type>Trackpoint</type></trkpt>
<trkpt lat='46.85958428' lon='13.75738121'><ele>0</ele><time>2007-01-01T01:00:00Z</time><type>Trackpoint</type></trkpt>
<trkpt lat='46.85922326' lon='13.75770622'><ele>0</ele><time>2007-01-01T01:00:00Z</time><type>Trackpoint</type></trkpt>
<trkpt lat='46.85913233' lon='13.75796777'><ele>0</ele><time>2007-01-01T01:00:00Z</time><type>Trackpoint</type></trkpt>
<trkpt lat='46.85913136' lon='13.75823004'><ele>0</ele><time>2007-01-01T01:00:00Z</time><type>Trackpoint</type></trkpt>
<trkpt lat='46.85962341' lon='13.75895519'><ele>0</ele><time>2007-01-01T01:00:00Z</time><type>Trackpoint</type></trkpt>
<trkpt lat='46.85962195' lon='13.75934859'><ele>0</ele><time>2007-01-01T01:00:00Z</time><type>Trackpoint</type></trkpt>
<trkpt lat='46.85930639' lon='13.75954280'><ele>0</ele><time>2007-01-01T01:00:00Z</time><type>Trackpoint</type></trkpt>
<trkpt lat='46.85903580' lon='13.75973737'><ele>0</ele><time>2007-01-01T01:00:00Z</time><type>Trackpoint</type></trkpt>
<trkpt lat='46.85881117' lon='13.75967002'><ele>0</ele><time>2007-01-01T01:00:00Z</time><type>Trackpoint</type></trkpt>
<trkpt lat='46.85863078' lon='13.75979973'><ele>0</ele><time>2007-01-01T01:00:00Z</time><type>Trackpoint</type></trkpt>
<trkpt lat='46.85822478' lon='13.76012435'><ele>0</ele><time>2007-01-01T01:00:00Z</time><type>Trackpoint</type></trkpt>
<trkpt lat='46.85759365' lon='13.76051275'><ele>0</ele><time>2007-01-01T01:00:00Z</time><type>Trackpoint</type></trkpt>
<trkpt lat='46.85714292' lon='13.76077144'><ele>0</ele><time>2007-01-01T01:00:00Z</time><type>Trackpoint</type></trkpt>
<trkpt lat='46.85669292' lon='13.76083344'><ele>0</ele><time>2007-01-01T01:00:00Z</time><type>Trackpoint</type></trkpt>
<trkpt lat='46.85597380' lon='13.76069660'><ele>0</ele><time>2007-01-01T01:00:00Z</time><type>Trackpoint</type></trkpt>
<trkpt lat='46.85579366' lon='13.76076073'><ele>0</ele><time>2007-01-01T01:00:00Z</time><type>Trackpoint</type></trkpt>
<trkpt lat='46.85543189' lon='13.76128238'><ele>0</ele><time>2007-01-01T01:00:00Z</time><type>Trackpoint</type></trkpt>
<trkpt lat='46.85511437' lon='13.76200106'><ele>0</ele><time>2007-01-01T01:00:00Z</time><type>Trackpoint</type></trkpt>
<trkpt lat='46.85479585' lon='13.76298197'><ele>0</ele><time>2007-01-01T01:00:00Z</time><type>Trackpoint</type></trkpt>
<trkpt lat='46.85425344' lon='13.76369884'><ele>0</ele><time>2007-01-01T01:00:00Z</time><type>Trackpoint</type></trkpt>
<trkpt lat='46.85375599' lon='13.76441605'><ele>0</ele><time>2007-01-01T01:00:00Z</time><type>Trackpoint</type></trkpt>
<trkpt lat='46.85294223' lon='13.76552407'><ele>0</ele><time>2007-01-01T01:00:00Z</time><type>Trackpoint</type></trkpt>
<trkpt lat='46.85226537' lon='13.76610869'><ele>0</ele><time>2007-01-01T01:00:00Z</time><type>Trackpoint</type></trkpt>
<trkpt lat='46.85172418' lon='13.76649770'><ele>0</ele><time>2007-01-01T01:00:00Z</time><type>Trackpoint</type></trkpt>
<trkpt lat='46.85122721' lon='13.76708373'><ele>0</ele><time>2007-01-01T01:00:00Z</time><type>Trackpoint</type></trkpt>
<trkpt lat='46.85082169' lon='13.76727714'><ele>0</ele><time>2007-01-01T01:00:00Z</time><type>Trackpoint</type></trkpt>
<trkpt lat='46.85055159' lon='13.76734053'><ele>0</ele><time>2007-01-01T01:00:00Z</time><type>Trackpoint</type></trkpt>
<trkpt lat='46.85032745' lon='13.76714205'><ele>0</ele><time>2007-01-01T01:00:00Z</time><type>Trackpoint</type></trkpt>
<trkpt lat='46.84992342' lon='13.76694212'><ele>0</ele><time>2007-01-01T01:00:00Z</time><type>Trackpoint</type></trkpt>
<trkpt lat='46.84983496' lon='13.76654807'><ele>0</ele><time>2007-01-01T01:00:00Z</time><type>Trackpoint</type></trkpt>
<trkpt lat='46.85001759' lon='13.76582840'><ele>0</ele><time>2007-01-01T01:00:00Z</time><type>Trackpoint</type></trkpt>
<trkpt lat='46.85042657' lon='13.76471720'><ele>0</ele><time>2007-01-01T01:00:00Z</time><type>Trackpoint</type></trkpt>
<trkpt lat='46.85060870' lon='13.76412863'><ele>0</ele><time>2007-01-01T01:00:00Z</time><type>Trackpoint</type></trkpt>
<trkpt lat='46.85060993' lon='13.76380085'><ele>0</ele><time>2007-01-01T01:00:00Z</time><type>Trackpoint</type></trkpt>
<trkpt lat='46.85052047' lon='13.76366902'><ele>0</ele><time>2007-01-01T01:00:00Z</time><type>Trackpoint</type></trkpt>
<trkpt lat='46.85034081' lon='13.76360202'><ele>0</ele><time>2007-01-01T01:00:00Z</time><type>Trackpoint</type></trkpt>
<trkpt lat='46.84971042' lon='13.76379366'><ele>0</ele><time>2007-01-01T01:00:00Z</time><type>Trackpoint</type></trkpt>
<trkpt lat='46.84912598' lon='13.76372344'><ele>0</ele><time>2007-01-01T01:00:00Z</time><type>Trackpoint</type></trkpt>
<trkpt lat='46.84795613' lon='13.76384520'><ele>0</ele><time>2007-01-01T01:00:00Z</time><type>Trackpoint</type></trkpt>
<trkpt lat='46.84777573' lon='13.76397487'><ele>0</ele><time>2007-01-01T01:00:00Z</time><type>Trackpoint</type></trkpt>
<trkpt lat='46.84763957' lon='13.76430156'><ele>0</ele><time>2007-01-01T01:00:00Z</time><type>Trackpoint</type></trkpt>
<trkpt lat='46.84718932' lon='13.76442906'><ele>0</ele><time>2007-01-01T01:00:00Z</time><type>Trackpoint</type></trkpt>
<trkpt lat='46.84619961' lon='13.76448670'><ele>0</ele><time>2007-01-01T01:00:00Z</time><type>Trackpoint</type></trkpt>
<trkpt lat='46.84584006' lon='13.76441827'><ele>0</ele><time>2007-01-01T01:00:00Z</time><type>Trackpoint</type></trkpt>
</trkseg></trk>
</gpx>
